Weather History for North Bend, OR

Change the Weather History Date:

Tuesday, January 1, 2013

  Actual Average Record
Temperature  
Mean Temperature 45 °F 45 °F  
Max Temperature 55 °F 51 °F 67 °F (1928)
Min Temperature 34 °F 40 °F 20 °F (1924)
Degree Days  
Heating Degree Days 20 20  
Month to date heating degree days 20 20  
Since 1 July heating degree days 1895 2081  
Cooling Degree Days 0 0  
Month to date cooling degree days 0 0  
Year to date cooling degree days 0 0  
Moisture  
Dew Point 38 °F    
Average Humidity 88    
Maximum Humidity 100    
Minimum Humidity 55    
Precipitation  
Precipitation 0.00 in 0.35 in 2.05 in (1987)
Month to date precipitation 0.00 0.35  
Year to date precipitation 0.00 0.35  
Sea Level Pressure  
Sea Level Pressure 30.30 in    
Wind  
Wind Speed 5 mph (SE)    
Max Wind Speed 12 mph    
Max Gust Speed -    
Visibility 9 miles    
Events      
T = Trace of Precipitation, MM = Missing Value Source: NWS Daily Summary

Daily Weather History Graph

Daily Weather History Graph

Search for Another Location

Airport:

Trip Planner

Search our weather history database for the weather conditions in past years. The results will help you decide how hot, cold, wet, or windy it might be!

Date:

Astronomy

Jan. 01, 2013 Rise Set
Actual Time 7:49 AM PST 4:52 PM PST
Civil Twilight 7:17 AM PST 5:24 PM PST
Nautical Twilight 6:41 AM PST 6:00 PM PST
Astronomical Twilight 6:06 AM PST 6:35 PM PST
Moon 9:37 PM PST (1/1) 9:56 AM PST (1/1)
Length of Visible Light 10h 07m
Length of Day
9h 02m
Waning Gibbous, 82% of the Moon is Illuminated
Jan 1
Waning Gibbous
Jan 4
Last Quarter
Jan 11
New
Jan 18
First Quarter
Jan 26
Full

Hourly Weather History & Observations

Time (PST) Temp. Windchill Dew Point Humidity Pressure Visibility Wind Dir Wind Speed Gust Speed Precip Events Conditions
12:15 AM 39.2 °F 35.9 °F 37.4 °F 93% 30.34 in 10.0 mi SE 4.6 mph - N/A   Partly Cloudy
12:35 AM 39.2 °F 37.0 °F 37.4 °F 93% 30.34 in 10.0 mi SSE 3.5 mph - N/A   Clear
12:55 AM 37.4 °F 33.8 °F 37.4 °F 100% 30.33 in 10.0 mi SE 4.6 mph - N/A   Clear
1:15 AM 37.4 °F 34.9 °F 37.4 °F 100% 30.33 in 10.0 mi SE 3.5 mph - N/A   Clear
1:35 AM 37.4 °F 34.9 °F 37.4 °F 100% 30.34 in 10.0 mi South 3.5 mph - N/A   Clear
1:55 AM 37.4 °F 32.8 °F 37.4 °F 100% 30.34 in 10.0 mi SE 5.8 mph - N/A   Clear
2:15 AM 35.6 °F 31.7 °F 35.6 °F 100% 30.34 in 10.0 mi SSE 4.6 mph - N/A   Clear
2:35 AM 37.4 °F 34.9 °F 35.6 °F 93% 30.34 in 10.0 mi SSE 3.5 mph - N/A   Clear
3:15 AM 37.4 °F 32.8 °F 35.6 °F 93% 30.34 in 10.0 mi ESE 5.8 mph - N/A   Clear
3:35 AM 39.2 °F 32.0 °F 39.2 °F 100% 30.34 in 10.0 mi East 11.5 mph - N/A   Clear
3:55 AM 39.2 °F 32.0 °F 37.4 °F 93% 30.33 in 10.0 mi East 11.5 mph - N/A   Clear
4:15 AM 39.2 °F 35.0 °F 37.4 °F 93% 30.32 in 10.0 mi East 5.8 mph - N/A   Clear
4:35 AM 39.2 °F 35.9 °F 37.4 °F 93% 30.32 in 10.0 mi NE 4.6 mph - N/A   Clear
4:55 AM 39.2 °F 34.2 °F 37.4 °F 93% 30.32 in 10.0 mi ENE 6.9 mph - N/A   Clear
5:15 AM 37.4 °F - 37.4 °F 100% 30.32 in 10.0 mi Calm Calm - N/A   Clear
5:35 AM 37.4 °F - 35.6 °F 93% 30.32 in 10.0 mi Calm Calm - N/A   Clear
5:55 AM 37.4 °F - 37.4 °F 100% 30.33 in 10.0 mi Calm Calm - N/A   Clear
6:15 AM 39.2 °F 35.9 °F 37.4 °F 93% 30.33 in 10.0 mi ENE 4.6 mph - N/A   Clear
6:35 AM 37.4 °F - 37.4 °F 100% 30.33 in 10.0 mi Calm Calm - N/A   Clear
6:55 AM 37.4 °F 34.9 °F 37.4 °F 100% 30.33 in 10.0 mi ENE 3.5 mph - N/A   Clear
7:15 AM 33.8 °F 30.8 °F 32.0 °F 93% 30.33 in 10.0 mi SSE 3.5 mph - N/A   Clear
7:35 AM 33.8 °F 30.8 °F 33.8 °F 100% 30.33 in 10.0 mi SSE 3.5 mph - N/A   Clear
7:55 AM 33.8 °F 29.6 °F 33.8 °F 100% 30.33 in 9.0 mi SE 4.6 mph - N/A   Clear
8:15 AM 35.6 °F 30.7 °F 35.6 °F 100% 30.33 in 10.0 mi ESE 5.8 mph - N/A   Clear
8:35 AM 35.6 °F 32.8 °F 35.6 °F 100% 30.33 in 10.0 mi ESE 3.5 mph - N/A   Clear
8:55 AM 37.4 °F 32.8 °F 37.4 °F 100% 30.34 in 10.0 mi SSE 5.8 mph - N/A   Clear
9:15 AM 39.2 °F 37.0 °F 37.4 °F 93% 30.35 in 10.0 mi South 3.5 mph - N/A   Clear
9:35 AM 39.2 °F - 37.4 °F 93% 30.35 in 10.0 mi Calm Calm - N/A   Clear
10:15 AM 42.8 °F 40.1 °F 39.2 °F 87% 30.36 in 10.0 mi SE 4.6 mph - N/A   Clear
10:35 AM 44.6 °F 42.2 °F 39.2 °F 81% 30.36 in 10.0 mi SE 4.6 mph - N/A   Clear
11:15 AM 46.4 °F - 39.2 °F 76% 30.34 in 10.0 mi Calm Calm - N/A   Clear
11:35 AM 46.4 °F 45.2 °F 39.2 °F 76% 30.33 in 10.0 mi SSE 3.5 mph - N/A   Clear
11:55 AM 48.2 °F - 39.2 °F 71% 30.32 in 10.0 mi SE 4.6 mph - N/A   Clear
12:15 PM 50.0 °F - 39.2 °F 66% 30.31 in 10.0 mi Calm Calm - N/A   Clear
12:35 PM 51.8 °F - 39.2 °F 62% 30.31 in 10.0 mi Calm Calm - N/A   Clear
12:55 PM 51.8 °F - 39.2 °F 62% 30.31 in 10.0 mi Calm Calm - N/A   Clear
1:15 PM 50.0 °F - 41.0 °F 71% 30.30 in 10.0 mi Calm Calm - N/A   Clear
1:35 PM 53.6 °F - 39.2 °F 58% 30.29 in 10.0 mi ESE 4.6 mph - N/A   Clear
1:55 PM 53.6 °F - 39.2 °F 58% 30.29 in 10.0 mi SSE 3.5 mph - N/A   Clear
2:15 PM 53.6 °F - 39.2 °F 58% 30.28 in 10.0 mi SE 4.6 mph - N/A   Clear
2:35 PM 55.4 °F - 37.4 °F 51% 30.28 in 10.0 mi Calm Calm - N/A   Clear
2:55 PM 55.4 °F - 39.2 °F 54% 30.28 in 10.0 mi Calm Calm - N/A   Clear
3:15 PM 53.6 °F - 42.8 °F 67% 30.28 in 10.0 mi West 3.5 mph - N/A   Clear
3:35 PM 51.8 °F - 44.6 °F 76% 30.28 in 5.0 mi West 3.5 mph - N/A   Clear
3:55 PM 51.8 °F - 44.6 °F 76% 30.27 in 5.0 mi NW 3.5 mph - N/A   Clear
4:15 PM 50.0 °F - 44.6 °F 82% 30.28 in 5.0 mi NNW 4.6 mph - N/A   Clear
4:35 PM 48.2 °F - 44.6 °F 87% 30.28 in 5.0 mi Calm Calm - N/A   Clear
4:55 PM 48.2 °F - 44.6 °F 87% 30.27 in 5.0 mi Calm Calm - N/A   Clear
5:15 PM 44.6 °F 41.4 °F 42.8 °F 93% 30.26 in 5.0 mi SSE 5.8 mph - N/A   Clear
5:35 PM 42.8 °F 41.1 °F 42.8 °F 100% 30.26 in 10.0 mi South 3.5 mph - N/A   Clear
5:55 PM 44.6 °F - 42.8 °F 93% 30.26 in 10.0 mi Calm Calm - N/A   Clear
6:15 PM 42.8 °F - 42.8 °F 100% 30.26 in 10.0 mi Calm Calm - N/A   Clear
6:35 PM 39.2 °F 35.9 °F 39.2 °F 100% 30.26 in 5.0 mi SSE 4.6 mph - N/A   Clear
6:55 PM 39.2 °F 35.0 °F 39.2 °F 100% 30.26 in 5.0 mi SE 5.8 mph - N/A   Clear
7:15 PM 39.2 °F 35.0 °F 39.2 °F 100% 30.26 in 8.0 mi SSE 5.8 mph - N/A   Clear
7:35 PM 39.2 °F 35.9 °F 39.2 °F 100% 30.25 in 10.0 mi SE 4.6 mph - N/A   Clear
7:55 PM 39.2 °F 35.0 °F 37.4 °F 93% 30.25 in 10.0 mi ESE 5.8 mph - N/A   Clear
8:15 PM 37.4 °F 32.8 °F 37.4 °F 100% 30.25 in 10.0 mi SE 5.8 mph - N/A   Clear
8:35 PM 39.2 °F 33.6 °F 37.4 °F 93% 30.24 in 10.0 mi SE 8.1 mph - N/A   Clear
8:55 PM 39.2 °F 33.6 °F 35.6 °F 87% 30.24 in 10.0 mi SSE 8.1 mph - N/A   Clear
9:15 PM 37.4 °F 31.4 °F 35.6 °F 93% 30.23 in 10.0 mi SE 8.1 mph - N/A   Clear
9:35 PM 39.2 °F 33.6 °F 35.6 °F 87% 30.23 in 10.0 mi SSE 8.1 mph - N/A   Clear
9:55 PM 39.2 °F 33.6 °F 35.6 °F 87% 30.23 in 10.0 mi SSE 8.1 mph - N/A   Clear
10:15 PM 39.2 °F 32.5 °F 35.6 °F 87% 30.23 in 10.0 mi SE 10.4 mph - N/A   Clear
10:35 PM 39.2 °F 33.0 °F 35.6 °F 87% 30.23 in 10.0 mi SSE 9.2 mph - N/A   Clear
10:55 PM 39.2 °F 33.6 °F 35.6 °F 87% 30.23 in 10.0 mi SE 8.1 mph - N/A   Clear
11:15 PM 39.2 °F 33.0 °F 35.6 °F 87% 30.23 in 10.0 mi SE 9.2 mph - N/A   Clear
11:35 PM 37.4 °F 30.3 °F 35.6 °F 93% 30.22 in 10.0 mi SE 10.4 mph - N/A   Clear
11:55 PM 39.2 °F 33.0 °F 35.6 °F 87% 30.22 in 10.0 mi SSE 9.2 mph - N/A   Clear